Location: Six Mile Lake
(44.9000°N, 79.7170°W)
Time: 06:12:32
(UTC-04:00)

AAUSAT CUBESAT 2 - Visible Passes

Search period start: 29 June 2022 00:00
Search period end: 09 July 2022 00:00
Orbit: 565 x 583 km, 97.5° (Epoch: 28 June)

Date Brightness Start Highest point End Pass type
(mag) Time Alt. Az. Time Alt. Az. Time Alt. Az.
05 Jul ? 04:52:19 10° E 04:52:36 10° E 04:52:53 10° E visible
06 Jul ? 04:54:38 10° ENE 04:55:49 11° E 04:57:00 10° ESE visible
07 Jul ? 04:57:25 10° ENE 04:59:03 12° E 05:00:40 10° ESE visible
08 Jul ? 05:00:18 10° ENE 05:02:16 13° E 05:04:13 10° ESE visible
